Temp
13 13 13 13 12 12 12 12 11 11 11 10 10 10 9 9 9 8 8 8 8 8 7 7 7 7 7 7 6 6 5 5 5 4 3 3 3 3 2 1 -0 -1 -2
13 13 13 13 12 12 12 12 11 11 10 10 10 9 9 9 8 8 8 7 7 7 7 7 7 7 6 6 6 5 5 4 4 4 3 3 2 2 2 1 -1 -2 -2
13 13 13 13 12 12 12 11 11 11 10 10 10 9 9 8 8 8 7 7 7 7 7 7 6 6 6 6 5 5 4 4 3 3 3 2 2 2 2 0 -1 -2 -3
13 13 13 12 12 12 12 11 11 10 10 10 9 9 9 8 8 7 7 7 7 6 6 6 6 6 6 6 5 5 4 4 3 2 2 2 2 2 1 0 -1 -2 -3
12 12 13 12 12 12 11 11 11 10 10 10 9 9 9 8 7 7 7 7 6 6 6 6 5 6 5 5 5 5 4 3 2 2 2 2 1 1 0 -1 -1 -2 -2
12 12 12 12 12 11 11 11 11 10 10 10 10 9 9 8 7 7 7 6 6 6 5 5 5 5 5 5 5 4 4 3 2 2 1 1 1 0 -0 -2 -2 -3 -3
12 12 12 12 11 11 11 11 11 11 10 10 10 9 9 8 7 7 6 6 6 5 5 5 5 5 5 4 4 4 3 2 2 1 1 1 -0 -1 -1 -2 -2 -3 -3
12 12 12 12 11 11 11 11 11 10 10 10 10 9 9 8 8 7 6 6 6 5 5 5 4 4 4 4 4 3 3 2 1 1 0 -0 -1 -1 -2 -2 -3 -3 -3
12 12 12 12 12 12 12 11 10 10 10 10 10 9 9 8 7 7 6 6 5 5 5 4 4 4 4 4 4 3 2 1 1 0 0 -1 -1 -2 -2 -3 -3 -4 -4
12 12 12 12 12 12 11 11 11 10 10 9 9 9 8 8 7 7 6 5 5 5 4 4 4 3 3 4 3 3 2 1 0 0 -0 -1 -2 -2 -3 -3 -3 -4 -4
11 11 11 11 11 11 11 11 11 10 10 9 9 8 8 7 7 6 6 5 5 4 4 4 3 3 3 3 3 2 2 1 0 -0 -1 -2 -2 -2 -3 -3 -4 -4 -5
10 10 11 11 11 11 11 11 11 10 10 9 9 8 8 7 7 6 6 5 4 4 4 3 3 3 3 3 3 2 1 0 -0 -0 -1 -2 -3 -3 -3 -4 -4 -5 -5
8 9 9 10 10 11 10 10 10 10 9 9 9 9 8 8 7 6 5 5 4 4 3 3 3 3 2 2 2 1 1 -0 -0 -1 -2 -2 -3 -3 -3 -4 -4 -4 -5
8 8 8 8 9 9 9 9 9 9 9 9 9 9 8 7 6 6 5 4 4 3 2 2 2 2 2 2 2 1 0 -1 -1 -1 -2 -3 -3 -3 -4 -4 -4 -5 -5
7 8 8 8 8 8 9 9 9 9 9 9 8 7 7 7 6 5 4 3 3 2 2 2 2 2 2 2 1 0 -1 -1 -1 -2 -2 -3 -3 -4 -4 -4 -5 -5 -5
6 7 7 7 8 8 9 9 9 9 9 9 8 8 7 6 5 4 3 3 2 2 2 2 2 2 1 1 1 -0 -1 -2 -2 -3 -3 -3 -4 -4 -4 -4 -5 -5 -5
5 6 6 7 7 7 7 7 7 8 8 8 8 7 7 6 5 5 3 2 2 2 2 2 1 1 1 1 -0 -1 -2 -2 -3 -3 -3 -4 -4 -4 -4 -5 -5 -5 -5
4 5 5 5 6 6 6 6 6 6 7 7 7 7 6 5 5 4 3 2 2 2 2 1 1 1 0 -0 -1 -2 -2 -3 -3 -4 -4 -4 -4 -5 -5 -5 -5 -5 -6
4 4 4 5 5 5 5 6 6 6 6 6 6 6 6 6 4 3 3 2 2 1 1 1 1 0 -1 -1 -2 -2 -3 -3 -4 -4 -4 -5 -5 -5 -5 -5 -6 -6 -6
3 3 4 4 4 4 4 4 5 5 5 5 5 5 5 4 4 3 2 1 1 1 1 0 -0 -1 -1 -2 -3 -3 -3 -4 -4 -4 -5 -5 -5 -5 -5 -6 -6 -7 -7
2 3 3 3 3 3 4 3 4 4 4 4 4 4 3 3 2 1 1 1 1 1 0 -0 -1 -1 -2 -3 -4 -4 -4 -4 -4 -5 -5 -5 -5 -6 -6 -6 -7 -7 -7
2 2 2 3 2 3 3 3 3 3 3 3 3 3 3 2 2 1 1 1 0 0 -0 -1 -2 -3 -3 -4 -4 -4 -4 -5 -5 -5 -5 -6 -6 -6 -6 -6 -7 -7 -8
1 1 2 2 2 2 2 2 2 3 3 3 3 2 2 1 1 0 -0 -0 -0 -1 -1 -2 -4 -4 -5 -5 -5 -5 -5 -5 -5 -5 -6 -6 -6 -6 -7 -7 -7 -8 -8
1 1 1 2 2 2 1 1 1 2 2 2 2 1 1 0 -0 -1 -1 -1 -1 -2 -2 -2 -5 -5 -6 -6 -5 -5 -5 -5 -6 -6 -6 -6 -6 -7 -7 -8 -8 -8 -8
1 1 1 2 2 1 0 0 0 0 1 1 0 -0 -1 -1 -1 -2 -2 -2 -2 -3 -3 -5 -6 -6 -6 -6 -5 -6 -6 -6 -6 -7 -7 -7 -7 -7 -8 -8 -9 -9 -9
1 1 1 2 2 1 -0 -0 -0 -0 0 0 -1 -2 -2 -2 -2 -3 -3 -3 -4 -4 -5 -6 -7 -7 -6 -6 -6 -6 -6 -6 -7 -7 -7 -7 -8 -8 -9 -9 -9 -9 -10
Height
3135 3138 3140 3142 3145 3146 3148 3151 3153 3154 3155 3155 3155 3155 3155 3154 3153 3152 3151 3150 3148 3146 3143 3140 3135 3131 3126 3121 3117 3112 3106 3099 3094 3094 3088 3081 3075 3066 3060 3053 3046 3040 3036
3129 3131 3134 3136 3137 3139 3142 3145 3146 3148 3149 3149 3149 3149 3149 3149 3148 3147 3146 3145 3143 3140 3138 3135 3131 3126 3121 3117 3112 3106 3101 3095 3089 3085 3082 3076 3069 3060 3052 3046 3041 3035 3029
3122 3124 3126 3129 3130 3133 3136 3138 3139 3141 3142 3142 3142 3143 3143 3143 3142 3141 3140 3139 3137 3135 3133 3130 3126 3121 3116 3111 3106 3101 3096 3090 3084 3078 3074 3068 3061 3053 3047 3040 3035 3031 3025
3115 3117 3119 3121 3124 3127 3129 3131 3132 3133 3134 3135 3136 3136 3136 3136 3136 3135 3134 3132 3131 3129 3127 3124 3120 3116 3110 3106 3101 3095 3090 3084 3079 3073 3068 3061 3054 3047 3040 3033 3029 3024 3020
3106 3108 3112 3114 3116 3118 3120 3122 3124 3124 3126 3127 3128 3128 3128 3128 3128 3128 3127 3126 3124 3122 3119 3117 3114 3109 3105 3100 3094 3088 3083 3079 3073 3068 3061 3056 3048 3042 3035 3028 3022 3018 3014
3096 3100 3103 3105 3107 3109 3111 3114 3114 3116 3117 3118 3119 3120 3120 3120 3120 3120 3119 3118 3116 3114 3112 3110 3106 3102 3098 3093 3086 3081 3076 3071 3065 3060 3055 3048 3042 3035 3028 3022 3015 3010 3005
3086 3090 3092 3095 3097 3100 3102 3103 3104 3106 3107 3108 3109 3110 3111 3111 3111 3111 3111 3110 3108 3106 3104 3101 3098 3095 3091 3085 3079 3074 3068 3062 3056 3052 3047 3039 3034 3027 3020 3014 3009 3004 3000
3075 3078 3081 3084 3087 3090 3091 3093 3094 3096 3097 3097 3099 3100 3101 3102 3101 3101 3101 3101 3099 3097 3095 3093 3091 3087 3083 3078 3072 3067 3061 3054 3048 3043 3037 3032 3026 3019 3014 3009 3003 2999 2995
3066 3070 3073 3075 3077 3078 3079 3082 3083 3085 3086 3087 3088 3089 3090 3091 3091 3091 3091 3091 3090 3089 3086 3084 3082 3079 3075 3069 3065 3061 3055 3048 3041 3037 3032 3027 3021 3015 3010 3006 3001 2995 2991
3057 3061 3063 3063 3065 3066 3070 3071 3072 3073 3074 3075 3076 3077 3078 3080 3080 3079 3080 3080 3080 3079 3077 3075 3073 3070 3065 3061 3056 3052 3047 3041 3037 3032 3026 3021 3015 3010 3004 2998 2993 2989 2982
3045 3046 3048 3050 3052 3055 3057 3057 3059 3060 3060 3061 3063 3065 3066 3068 3068 3068 3069 3070 3070 3068 3067 3066 3063 3061 3057 3052 3047 3042 3037 3033 3029 3025 3020 3015 3010 3005 3000 2994 2987 2983 2977
3033 3035 3037 3038 3039 3041 3042 3044 3045 3046 3046 3047 3049 3050 3052 3055 3055 3056 3058 3060 3058 3058 3057 3055 3053 3051 3048 3043 3038 3032 3028 3024 3021 3016 3012 3006 3002 2997 2992 2988 2983 2978 2972
3022 3023 3023 3024 3025 3026 3027 3029 3030 3032 3033 3035 3035 3037 3039 3041 3042 3045 3047 3047 3047 3048 3046 3045 3044 3041 3038 3034 3029 3024 3020 3016 3013 3008 3004 2999 2995 2991 2985 2981 2975 2971 2966
3016 3016 3015 3015 3015 3015 3016 3017 3018 3020 3021 3023 3024 3025 3027 3028 3030 3032 3033 3035 3036 3036 3036 3035 3034 3032 3029 3024 3019 3015 3012 3008 3004 3000 2996 2992 2987 2983 2978 2973 2970 2965 2961
3008 3008 3008 3008 3008 3008 3008 3008 3008 3010 3010 3010 3012 3013 3015 3016 3019 3022 3023 3023 3024 3025 3025 3025 3024 3022 3019 3014 3010 3007 3003 2999 2996 2993 2989 2985 2980 2977 2973 2967 2962 2959 2953
3001 3001 3000 3000 3000 3000 3000 3000 3000 3000 2999 2999 3000 3001 3002 3004 3006 3007 3009 3011 3013 3014 3015 3015 3014 3012 3008 3004 3001 2998 2994 2991 2988 2984 2980 2976 2973 2969 2964 2960 2955 2950 2946
2991 2992 2992 2992 2991 2990 2990 2990 2989 2989 2989 2988 2989 2989 2991 2993 2994 2996 2999 3001 3002 3004 3005 3005 3003 3000 2998 2995 2991 2988 2985 2982 2979 2976 2972 2969 2966 2961 2957 2952 2947 2942 2936
2980 2980 2980 2980 2980 2980 2979 2979 2979 2979 2979 2979 2978 2979 2980 2982 2984 2986 2988 2989 2991 2994 2994 2993 2992 2990 2988 2984 2981 2979 2976 2973 2971 2968 2965 2962 2957 2954 2950 2945 2940 2935 2929
2968 2969 2969 2969 2969 2968 2967 2967 2967 2967 2968 2968 2968 2969 2970 2971 2972 2974 2976 2979 2982 2983 2982 2982 2981 2979 2976 2973 2971 2969 2968 2965 2962 2959 2956 2954 2949 2946 2941 2936 2931 2926 2922
2956 2956 2957 2956 2956 2956 2955 2955 2955 2955 2955 2956 2956 2957 2957 2959 2961 2964 2967 2969 2970 2971 2971 2971 2970 2967 2965 2963 2962 2960 2957 2955 2953 2951 2948 2946 2942 2937 2933 2928 2923 2918 2915
2941 2943 2943 2943 2942 2942 2942 2942 2943 2942 2943 2943 2945 2946 2947 2949 2951 2954 2956 2957 2958 2959 2960 2960 2958 2956 2954 2953 2952 2950 2948 2946 2944 2941 2940 2936 2933 2928 2924 2920 2913 2908 2904
2925 2928 2929 2929 2929 2929 2930 2930 2930 2931 2932 2933 2934 2935 2936 2938 2941 2943 2944 2945 2946 2947 2947 2946 2945 2944 2943 2942 2941 2941 2940 2937 2935 2933 2931 2927 2924 2921 2915 2910 2905 2901 2896
2909 2912 2913 2914 2914 2915 2916 2917 2918 2919 2920 2922 2922 2924 2926 2929 2930 2931 2933 2933 2934 2933 2933 2933 2931 2932 2932 2932 2931 2931 2930 2928 2926 2924 2920 2917 2914 2911 2905 2900 2896 2893 2889
2894 2895 2898 2899 2901 2902 2902 2904 2905 2906 2908 2909 2911 2913 2915 2917 2919 2920 2920 2920 2920 2920 2920 2918 2920 2921 2921 2921 2920 2920 2920 2918 2917 2914 2911 2909 2905 2902 2896 2892 2888 2883 2879
2880 2882 2884 2886 2887 2888 2889 2891 2892 2894 2895 2897 2899 2901 2902 2904 2905 2906 2907 2906 2905 2906 2906 2906 2909 2911 2912 2912 2910 2911 2910 2908 2905 2905 2901 2899 2895 2891 2886 2883 2879 2876 2872
2867 2869 2870 2872 2873 2874 2877 2880 2881 2882 2884 2886 2887 2888 2890 2891 2891 2892 2891 2891 2892 2893 2895 2896 2900 2902 2903 2903 2900 2900 2900 2898 2895 2892 2890 2888 2884 2880 2874 2872 2870 2866 2863
Wind_Speed
28 28 27 26 26 28 29 28 27 27 25 24 22 21 20 18 17 17 17 17 18 19 20 22 25 28 31 34 37 39 40 43 45 43 44 45 45 46 46 43 42 40 38
29 29 30 30 30 30 29 28 29 28 28 27 26 24 23 22 20 20 20 19 20 21 22 23 25 28 31 35 38 40 41 42 45 45 44 45 45 47 47 45 40 37 35
33 32 32 32 33 31 29 29 30 30 30 29 28 28 27 25 23 23 23 22 22 23 23 24 25 28 32 35 38 40 41 42 44 46 45 46 47 49 46 43 37 33 31
34 34 34 33 32 31 30 31 32 32 32 31 31 31 30 29 27 26 26 26 26 25 25 25 26 29 31 35 38 41 41 42 43 44 45 47 48 47 45 43 37 31 27
37 36 34 33 33 33 33 32 33 34 34 34 33 33 33 31 30 29 29 29 29 28 28 27 28 30 32 35 39 42 43 43 42 42 44 46 47 45 41 39 37 34 28
38 37 36 36 36 35 34 34 35 35 36 36 35 34 34 34 33 33 32 31 31 30 30 30 30 32 33 36 39 43 44 42 43 42 43 46 45 43 41 37 36 33 33
40 40 40 39 39 37 36 37 37 37 38 38 37 36 35 36 36 35 35 33 33 32 32 32 32 33 34 37 40 42 42 42 42 42 43 45 43 42 40 37 34 32 32
43 43 42 42 41 39 39 40 40 40 40 40 39 38 37 38 39 38 38 36 36 35 34 34 34 35 36 37 40 41 41 40 40 42 43 42 43 42 39 37 36 36 34
43 43 43 44 44 44 44 43 43 42 43 43 42 41 40 40 42 42 41 39 39 38 38 37 35 35 37 39 40 41 39 37 38 40 41 41 40 38 37 35 34 34 34
38 40 43 45 47 48 47 47 47 46 45 45 45 44 44 42 45 45 44 43 41 40 40 39 36 36 38 41 41 41 38 36 36 38 39 39 38 36 35 35 34 34 35
46 45 42 42 44 47 47 51 51 51 50 49 48 46 47 45 47 47 47 45 43 43 42 40 37 37 39 40 42 42 39 37 37 37 36 36 35 34 33 33 34 34 36
44 45 47 48 46 48 46 48 52 54 54 53 51 50 49 48 48 49 47 45 45 44 42 40 37 37 39 40 41 40 39 37 36 36 36 35 34 33 33 33 33 34 36
24 29 34 38 42 46 49 51 49 50 52 52 52 52 51 50 49 47 45 46 45 43 42 39 36 38 38 39 39 39 38 36 35 35 35 34 34 33 34 33 34 35 36
21 21 21 23 26 30 34 38 43 46 48 51 51 51 49 48 47 45 45 44 43 42 40 36 35 37 38 38 39 39 37 34 33 34 34 33 33 33 34 35 35 35 35
28 27 27 27 26 25 26 27 29 31 35 38 42 45 45 45 43 39 39 40 41 40 37 34 35 37 37 38 39 38 34 33 32 34 33 32 32 33 34 35 36 36 37
29 29 29 28 29 30 31 31 30 29 30 33 35 37 39 41 39 39 42 41 38 36 34 33 36 36 36 39 39 35 33 31 33 32 31 32 32 33 33 34 35 36 37
31 32 33 34 33 32 31 32 32 31 31 31 32 33 35 37 40 39 37 36 35 33 32 35 36 35 38 39 38 34 32 31 34 31 31 31 32 33 34 35 36 36 37
35 34 34 34 36 38 37 35 35 33 32 32 31 30 29 31 33 35 35 34 33 31 33 35 35 36 38 38 35 32 29 32 31 30 30 31 33 33 35 37 38 38 38
41 41 41 40 39 39 39 40 39 37 37 36 35 34 34 34 36 35 33 32 31 33 34 35 35 38 37 35 32 30 30 32 30 29 30 32 33 35 36 38 39 39 39
44 44 42 40 40 40 38 38 39 39 39 40 39 38 37 35 34 31 29 31 33 35 35 35 37 38 38 34 30 30 30 29 29 30 31 33 34 35 38 38 38 39 38
45 44 46 43 46 45 41 35 38 36 36 36 36 35 33 32 31 32 33 35 36 36 37 36 38 39 34 32 33 30 28 28 29 30 31 33 35 36 37 38 38 38 38
48 46 48 48 46 44 37 35 36 37 35 35 35 35 35 35 35 35 36 38 38 39 38 38 40 35 31 32 28 29 29 28 30 31 31 33 35 36 38 38 39 39 38
47 48 51 51 50 44 37 37 36 37 38 36 37 38 38 37 38 38 39 39 40 41 41 43 34 32 32 26 29 30 28 29 30 31 32 33 35 37 38 39 40 40 38
46 46 48 45 44 39 37 38 36 36 37 37 38 39 39 40 41 41 41 41 43 43 45 40 31 34 27 29 29 29 29 30 31 31 33 34 35 37 39 39 39 38 37
42 41 42 42 39 35 35 34 36 34 35 36 38 40 42 43 43 43 42 45 47 46 40 33 31 27 27 28 28 29 30 30 31 32 34 35 37 38 39 39 38 38 36
40 40 39 39 36 35 36 36 36 38 39 38 40 42 43 44 45 45 49 49 46 38 32 24 22 25 27 28 28 28 30 31 32 34 36 38 38 38 38 38 37 36 35
Wind_Direction
229 229 229 230 232 234 238 240 241 245 248 251 257 263 270 276 284 293 300 308 316 322 329 333 336 338 336 336 334 330 327 326 327 330 331 332 332 330 329 327 325 326 326
231 231 233 232 233 235 239 242 244 247 249 252 258 263 269 274 282 289 295 303 311 318 326 331 334 336 336 336 334 330 327 326 324 327 330 331 332 330 329 329 329 328 328
234 233 234 234 236 238 241 243 246 249 251 253 258 262 267 273 279 285 293 300 306 313 320 325 330 335 337 335 334 331 327 324 322 324 328 331 332 330 330 330 330 330 328
237 238 237 238 241 243 244 246 249 252 254 256 259 262 266 271 276 283 291 297 301 307 313 318 324 333 335 334 333 331 327 323 321 323 327 330 330 331 330 329 332 329 324
237 239 241 241 241 243 244 247 250 253 256 257 259 264 267 270 274 281 287 293 299 303 307 312 320 327 332 333 334 330 326 322 319 322 324 327 329 329 329 330 330 331 331
238 240 242 242 243 244 246 248 249 252 256 257 260 264 267 269 272 277 282 289 296 300 303 307 315 322 327 331 332 332 326 320 318 320 324 326 328 329 330 331 330 330 333
238 238 240 242 244 245 246 248 250 252 256 259 260 262 266 268 270 274 278 284 291 296 302 305 310 317 322 328 332 329 322 319 318 321 323 325 328 330 331 329 328 329 330
240 239 239 241 243 244 246 248 251 252 255 258 261 262 263 266 269 271 274 279 285 291 298 304 306 311 317 325 327 324 320 316 318 320 322 323 326 328 329 327 327 327 330
247 247 247 247 246 246 245 247 251 253 255 258 261 262 263 265 268 269 272 276 280 287 294 300 304 307 314 320 325 322 317 315 317 317 319 320 322 325 325 324 323 322 322
247 250 250 249 251 251 251 250 251 251 254 256 258 260 262 262 264 267 271 273 277 283 290 296 301 305 311 317 321 318 317 316 315 317 317 316 319 321 321 321 320 321 321
247 246 246 248 252 253 253 253 254 252 252 253 256 257 259 261 263 265 268 271 276 281 287 293 298 302 308 314 317 317 318 316 316 316 314 312 313 315 318 319 320 321 320
253 253 251 252 255 253 255 254 254 255 254 253 253 254 256 257 260 263 267 270 273 278 283 289 294 300 306 312 315 315 315 314 313 314 313 312 311 313 316 319 319 320 319
259 255 253 254 255 255 254 254 254 255 257 259 258 257 256 257 258 262 265 267 270 275 279 285 290 297 305 309 313 313 311 310 312 313 313 313 311 312 313 316 318 320 320
271 267 264 262 260 260 260 259 258 258 259 261 262 263 261 257 257 259 261 265 268 271 276 281 287 297 302 307 310 309 308 308 310 312 313 311 311 311 312 315 317 317 318
277 278 278 275 273 272 271 269 268 266 263 262 261 261 260 259 260 262 261 261 263 267 273 277 286 296 301 306 307 306 306 307 309 312 311 310 310 311 312 314 315 317 317
276 279 279 279 278 278 277 276 275 273 269 267 263 262 261 258 250 247 249 255 261 265 269 278 287 294 300 303 303 303 303 305 309 308 308 308 310 310 311 314 315 316 318
275 275 277 278 278 277 277 277 275 272 268 264 261 261 261 258 253 253 254 254 258 261 270 277 287 293 300 299 300 299 300 303 307 305 305 307 308 309 312 313 315 316 317
270 272 273 274 276 276 276 275 273 271 268 265 259 255 254 254 253 253 253 252 255 263 270 279 288 294 296 298 297 296 294 302 302 303 305 305 306 308 311 313 314 314 313
271 274 277 278 280 281 280 275 272 270 268 267 265 263 261 254 250 249 248 249 257 265 273 282 284 291 295 294 292 291 297 300 300 301 302 303 306 309 310 311 312 314 314
265 270 273 281 285 285 286 280 271 267 265 264 260 257 254 252 250 249 248 253 260 268 273 277 283 293 294 290 287 291 293 295 296 298 300 303 306 309 310 311 313 315 316
262 264 269 282 292 290 288 286 275 267 264 261 258 255 252 247 244 244 249 257 262 267 271 274 283 290 286 282 288 286 290 292 294 295 300 303 305 308 309 311 313 314 314
261 269 272 279 288 287 288 282 275 268 266 264 258 253 249 248 248 250 254 259 262 266 267 272 280 282 276 285 281 287 288 289 291 295 300 302 306 308 308 311 312 313 314
271 274 277 280 280 279 276 275 272 269 264 263 257 251 249 248 250 253 257 260 262 265 263 275 275 268 280 276 281 282 285 288 291 295 298 302 304 305 307 310 311 313 313
270 274 277 273 267 266 268 267 267 265 261 257 255 251 249 249 252 256 258 260 261 263 266 271 268 277 267 273 277 281 284 287 293 296 299 301 302 304 306 309 310 310 310
260 264 264 259 258 261 263 265 257 258 257 254 252 249 247 249 252 255 257 258 258 263 265 263 270 264 268 273 276 280 285 288 292 294 297 298 301 303 306 308 309 309 310
252 251 252 255 256 256 258 258 259 258 257 255 250 247 248 250 251 251 252 255 261 266 270 263 255 264 268 271 275 280 285 288 292 295 296 298 300 302 304 306 307 307 310